,,,PA_Meas_PMT16A,,PR_Meas_QMR101_102,,RH_Meas_QMH101,,SR_Meas_QMS101,,TA_Meas_QMH101,,GenWind,,GenWind,
date,time,status,PA,status,PR,status,RH,status,SR,status,TA,status,DirAvg,status,SpdAvg,
2010-08-28, 00:00:05,VALID,1002.01,VALID,0,VALID,92.677,VALID,0,VALID,22.4526,VALID,32,VALID,1.31172,
2010-08-28, 00:01:05,VALID,1001.99,VALID,0,VALID,92.7228,VALID,0,VALID,22.4526,VALID,35,VALID,1.10508,
2010-08-28, 00:02:05,VALID,1002,VALID,0,VALID,92.7609,VALID,0,VALID,22.4331,VALID,35,VALID,0.876562,
2010-08-28, 00:03:05,VALID,1001.93,VALID,0,VALID,92.7838,VALID,0,VALID,22.4136,VALID,35,VALID,0.687891,
2010-08-28, 00:04:05,VALID,1001.91,VALID,0,VALID,92.8448,VALID,0,VALID,22.4136,VALID,35,VALID,0.761328,
2010-08-28, 00:05:05,VALID,1001.93,VALID,0,VALID,92.9059,VALID,0,VALID,22.3941,VALID,35,VALID,0.665625,
2010-08-28, 00:06:05,VALID,1001.87,VALID,0,VALID,92.9288,VALID,0,VALID,22.3551,VALID,32,VALID,0.591016,
2010-08-28, 00:07:05,VALID,1001.87,VALID,0,VALID,92.9745,VALID,0,VALID,22.3568,VALID,20,VALID,0.578516,
2010-08-28, 00:08:05,VALID,1001.88,VALID,0,VALID,93.0203,VALID,0,VALID,22.3356,VALID,20,VALID,0.0417969,
2010-08-28, 00:09:05,VALID,1001.85,VALID,0,VALID,93.0585,VALID,0,VALID,22.3161,VALID,20,VALID,0.549609,
2010-08-28, 00:10:05,VALID,1001.87,VALID,0,VALID,93.1577,VALID,0,VALID,22.3356,VALID,20,VALID,0.460938,
2010-08-28, 00:11:05,VALID,1001.89,VALID,0,VALID,93.1882,VALID,0,VALID,22.3356,VALID,20,VALID,0.00585938,
2010-08-28, 00:12:05,VALID,1001.88,VALID,0,VALID,93.2416,VALID,0,VALID,22.3356,VALID,20,VALID,0.00898437,
2010-08-28, 00:13:05,VALID,1001.89,VALID,0,VALID,93.295,VALID,0,VALID,22.3551,VALID,20,VALID,0.501953,
2010-08-28, 00:14:05,VALID,1001.88,VALID,0,VALID,93.3484,VALID,0,VALID,22.3941,VALID,20,VALID,0.416406,
2010-08-28, 00:15:05,VALID,1001.88,VALID,0,VALID,93.3637,VALID,0,VALID,22.3941,VALID,20,VALID,0.0285156,
2010-08-28, 00:16:05,VALID,1001.89,VALID,0,VALID,93.3942,VALID,0,VALID,22.3941,VALID,20,VALID,0,
2010-08-28, 00:17:05,VALID,1001.85,VALID,0,VALID,93.4323,VALID,0,VALID,22.4136,VALID,118,VALID,0,
2010-08-28, 00:18:05,VALID,1001.85,VALID,0,VALID,93.4552,VALID,0,VALID,22.4331,VALID,133,VALID,0,
2010-08-28, 00:19:05,VALID,1001.82,VALID,0,VALID,93.4781,VALID,0,VALID,22.4543,VALID,133,VALID,0.125391,
2010-08-28, 00:20:05,VALID,1001.84,VALID,0,VALID,93.4705,VALID,0,VALID,22.4331,VALID,133,VALID,0.533203,
2010-08-28, 00:21:05,VALID,1001.8,VALID,0,VALID,93.4781,VALID,0,VALID,22.4509,VALID,133,VALID,0.422266,
2010-08-28, 00:22:05,VALID,1001.8,VALID,0,VALID,93.4781,VALID,0,VALID,22.4916,VALID,133,VALID,0.445703,
2010-08-28, 00:23:05,VALID,1001.78,VALID,0,VALID,93.4705,VALID,0,VALID,22.5306,VALID,133,VALID,0.737109,
2010-08-28, 00:24:05,VALID,1001.75,VALID,0,VALID,93.4323,VALID,0,VALID,22.5696,VALID,137,VALID,0.401172,
2010-08-28, 00:25:05,VALID,1001.74,VALID,0,VALID,93.3789,VALID,0,VALID,22.5696,VALID,137,VALID,0.495313,
2010-08-28, 00:26:05,VALID,1001.72,VALID,0,VALID,93.3103,VALID,0,VALID,22.5696,VALID,127,VALID,0.636719,
2010-08-28, 00:27:05,VALID,1001.71,VALID,0,VALID,93.2187,VALID,0,VALID,22.6087,VALID,122,VALID,0.477344,
2010-08-28, 00:28:05,VALID,1001.67,VALID,0,VALID,93.1119,VALID,0,VALID,22.5892,VALID,122,VALID,0.331641,
2010-08-28, 00:29:05,VALID,1001.68,VALID,0,VALID,93.0051,VALID,0,VALID,22.5679,VALID,122,VALID,0,
2010-08-28, 00:30:05,VALID,1001.63,VALID,0,VALID,92.8525,VALID,0,VALID,22.5501,VALID,122,VALID,0.00117188,
2010-08-28, 00:31:05,VALID,1001.6,VALID,0,VALID,92.7228,VALID,0,VALID,22.5306,VALID,83,VALID,0.495703,
2010-08-28, 00:32:05,VALID,1001.63,VALID,0,VALID,92.6312,VALID,0,VALID,22.5306,VALID,79,VALID,0.713281,
2010-08-28, 00:33:05,VALID,1001.6,VALID,0,VALID,92.5091,VALID,0,VALID,22.4916,VALID,79,VALID,0.563672,
2010-08-28, 00:34:05,VALID,1001.59,VALID,0,VALID,92.4328,VALID,0,VALID,22.4916,VALID,70,VALID,0.603906,
2010-08-28, 00:35:05,VALID,1001.61,VALID,0,VALID,92.4252,VALID,0,VALID,22.4704,VALID,50,VALID,0.559766,
2010-08-28, 00:36:05,VALID,1001.63,VALID,0,VALID,92.3718,VALID,0,VALID,22.4721,VALID,50,VALID,0.317187,
2010-08-28, 00:37:05,VALID,1001.65,VALID,0,VALID,92.3794,VALID,0,VALID,22.4721,VALID,50,VALID,0.172656,
2010-08-28, 00:38:05,VALID,1001.69,VALID,0,VALID,92.3642,VALID,0,VALID,22.4721,VALID,50,VALID,0.348828,
2010-08-28, 00:39:05,VALID,1001.68,VALID,0,VALID,92.326,VALID,0,VALID,22.4331,VALID,50,VALID,0.19375,
2010-08-28, 00:40:05,VALID,1001.66,VALID,0,VALID,92.3489,VALID,0,VALID,22.4331,VALID,50,VALID,0,
2010-08-28, 00:41:05,VALID,1001.64,VALID,0,VALID,92.4252,VALID,0,VALID,22.4331,VALID,50,VALID,0,
2010-08-28, 00:42:05,VALID,1001.59,VALID,0,VALID,92.5168,VALID,0,VALID,22.4331,VALID,50,VALID,0,
2010-08-28, 00:43:05,VALID,1001.57,VALID,0,VALID,92.616,VALID,0,VALID,22.4331,VALID,50,VALID,0,
2010-08-28, 00:44:05,VALID,1001.56,VALID,0,VALID,92.6312,VALID,0,VALID,22.4331,VALID,50,VALID,0,
2010-08-28, 00:45:05,VALID,1001.55,VALID,0,VALID,92.7228,VALID,0,VALID,22.4331,VALID,275,VALID,0.545313,
2010-08-28, 00:46:05,VALID,1001.53,VALID,0,VALID,92.7685,VALID,0,VALID,22.4721,VALID,275,VALID,0.377344,
2010-08-28, 00:47:05,VALID,1001.56,VALID,0,VALID,92.7914,VALID,0,VALID,22.4721,VALID,275,VALID,0,
2010-08-28, 00:48:05,VALID,1001.51,VALID,0,VALID,92.7991,VALID,0,VALID,22.4509,VALID,275,VALID,0,
2010-08-28, 00:49:05,VALID,1001.53,VALID,0,VALID,92.822,VALID,0,VALID,22.4721,VALID,275,VALID,0,
2010-08-28, 00:50:05,VALID,1001.5,VALID,0,VALID,92.8296,VALID,0,VALID,22.4526,VALID,275,VALID,0,
2010-08-28, 00:51:05,VALID,1001.52,VALID,0,VALID,92.7991,VALID,0,VALID,22.4526,VALID,275,VALID,0,
2010-08-28, 00:52:05,VALID,1001.43,VALID,0,VALID,92.8372,VALID,0,VALID,22.4526,VALID,275,VALID,0,
2010-08-28, 00:53:05,VALID,1001.45,VALID,0,VALID,92.8448,VALID,0,VALID,22.4526,VALID,275,VALID,0,
2010-08-28, 00:54:05,VALID,1001.42,VALID,0,VALID,92.8296,VALID,0,VALID,22.4526,VALID,275,VALID,0,
2010-08-28, 00:55:05,VALID,1001.41,VALID,0,VALID,92.7762,VALID,0,VALID,22.4526,VALID,275,VALID,0,
2010-08-28, 00:56:05,VALID,1001.39,VALID,0,VALID,92.6999,VALID,0,VALID,22.4331,VALID,275,VALID,0,
2010-08-28, 00:57:05,VALID,1001.37,VALID,0,VALID,92.5778,VALID,0,VALID,22.3729,VALID,275,VALID,0,
2010-08-28, 00:58:05,VALID,1001.34,VALID,0,VALID,92.5244,VALID,0,VALID,22.3746,VALID,275,VALID,0,
2010-08-28, 00:59:05,VALID,1001.35,VALID,0,VALID,92.616,VALID,0,VALID,22.3941,VALID,275,VALID,0.948438,
2010-08-28, 01:00:05,VALID,1001.36,VALID,0,VALID,92.6999,VALID,0,VALID,22.4331,VALID,275,VALID,1.10664,
2010-08-28, 01:01:05,VALID,1001.36,VALID,0,VALID,92.5931,VALID,0,VALID,22.4331,VALID,107,VALID,1.09844,
2010-08-28, 01:02:05,VALID,1001.38,VALID,0,VALID,92.4481,VALID,0,VALID,22.4331,VALID,104,VALID,1.2293,
2010-08-28, 01:03:05,VALID,1001.38,VALID,0,VALID,92.265,VALID,0,VALID,22.4136,VALID,94,VALID,1.25078,
2010-08-28, 01:04:05,VALID,1001.39,VALID,0,VALID,92.1353,VALID,0,VALID,22.3746,VALID,91,VALID,0.948438,
2010-08-28, 01:05:05,VALID,1001.36,VALID,0,VALID,92.0361,VALID,0,VALID,22.3356,VALID,86,VALID,0.925,
2010-08-28, 01:06:05,VALID,1001.39,VALID,0,VALID,92.0361,VALID,0,VALID,22.3178,VALID,85,VALID,0.924609,
2010-08-28, 01:07:05,VALID,1001.37,VALID,0,VALID,92.2116,VALID,0,VALID,22.2559,VALID,83,VALID,0.681641,
2010-08-28, 01:08:05,VALID,1001.38,VALID,0,VALID,92.3031,VALID,0,VALID,22.2576,VALID,83,VALID,0.26875,
2010-08-28, 01:09:05,VALID,1001.35,VALID,0,VALID,92.3031,VALID,0,VALID,22.2186,VALID,83,VALID,0.137891,
2010-08-28, 01:10:05,VALID,1001.35,VALID,0,VALID,92.3718,VALID,0,VALID,22.199,VALID,329,VALID,0.823828,
2010-08-28, 01:11:05,VALID,1001.31,VALID,0,VALID,92.5015,VALID,0,VALID,22.1795,VALID,312,VALID,1.12227,
2010-08-28, 01:12:05,VALID,1001.31,VALID,0,VALID,92.6388,VALID,0,VALID,22.1795,VALID,312,VALID,0.796094,
2010-08-28, 01:13:05,VALID,1001.3,VALID,0,VALID,92.7228,VALID,0,VALID,22.16,VALID,312,VALID,0.591016,
2010-08-28, 01:14:05,VALID,1001.31,VALID,0,VALID,92.822,VALID,0,VALID,22.1795,VALID,312,VALID,0.00585938,
2010-08-28, 01:15:05,VALID,1001.3,VALID,0,VALID,92.9135,VALID,0,VALID,22.1795,VALID,312,VALID,0,
2010-08-28, 01:16:05,VALID,1001.31,VALID,0,VALID,92.9974,VALID,0,VALID,22.1795,VALID,312,VALID,0,
2010-08-28, 01:17:05,VALID,1001.3,VALID,0,VALID,93.028,VALID,0,VALID,22.1795,VALID,312,VALID,0,
2010-08-28, 01:18:05,VALID,1001.28,VALID,0,VALID,93.0356,VALID,0,VALID,22.1389,VALID,312,VALID,0,
2010-08-28, 01:19:05,VALID,1001.27,VALID,0,VALID,93.0661,VALID,0,VALID,22.1405,VALID,312,VALID,0,
2010-08-28, 01:20:05,VALID,1001.29,VALID,0,VALID,93.089,VALID,0,VALID,22.121,VALID,312,VALID,0,
2010-08-28, 01:21:05,VALID,1001.28,VALID,0,VALID,93.1043,VALID,0,VALID,22.121,VALID,312,VALID,0,
2010-08-28, 01:22:05,VALID,1001.28,VALID,0,VALID,93.15,VALID,0,VALID,22.0998,VALID,312,VALID,0,
2010-08-28, 01:23:05,VALID,1001.28,VALID,0,VALID,93.1958,VALID,0,VALID,22.121,VALID,338,VALID,0,
2010-08-28, 01:24:05,VALID,1001.25,VALID,0,VALID,93.3026,VALID,0,VALID,22.1795,VALID,91,VALID,0,
2010-08-28, 01:25:05,VALID,1001.27,VALID,0,VALID,93.3331,VALID,0,VALID,22.199,VALID,91,VALID,0,
2010-08-28, 01:26:05,VALID,1001.25,VALID,0,VALID,93.295,VALID,0,VALID,22.199,VALID,91,VALID,0,
2010-08-28, 01:27:05,VALID,1001.24,VALID,0,VALID,93.3331,VALID,0,VALID,22.2771,VALID,91,VALID,0,
2010-08-28, 01:28:05,VALID,1001.24,VALID,0,VALID,93.2797,VALID,0,VALID,22.2949,VALID,91,VALID,0,
2010-08-28, 01:29:05,VALID,1001.21,VALID,0,VALID,93.2568,VALID,0,VALID,22.3551,VALID,93,VALID,0.653906,
2010-08-28, 01:30:05,VALID,1001.2,VALID,0,VALID,93.2034,VALID,0,VALID,22.3746,VALID,93,VALID,0.56875,
2010-08-28, 01:31:05,VALID,1001.22,VALID,0,VALID,93.1195,VALID,0,VALID,22.3941,VALID,93,VALID,0.620703,
2010-08-28, 01:32:05,VALID,1001.24,VALID,0,VALID,93.0203,VALID,0,VALID,22.4331,VALID,93,VALID,0.508984,
2010-08-28, 01:33:05,VALID,1001.22,VALID,0,VALID,92.944,VALID,0,VALID,22.4526,VALID,100,VALID,0.589453,
2010-08-28, 01:34:05,VALID,1001.22,VALID,0,VALID,92.8448,VALID,0,VALID,22.4526,VALID,100,VALID,0.560938,
2010-08-28, 01:35:05,VALID,1001.25,VALID,0,VALID,92.7685,VALID,0,VALID,22.4526,VALID,100,VALID,0.521094,
2010-08-28, 01:36:05,VALID,1001.21,VALID,0,VALID,92.6923,VALID,0,VALID,22.4526,VALID,100,VALID,0.55,
2010-08-28, 01:37:05,VALID,1001.22,VALID,0,VALID,92.4252,VALID,0,VALID,22.3551,VALID,8,VALID,0.800781,
2010-08-28, 01:38:05,VALID,1001.23,VALID,0,VALID,92.1506,VALID,0,VALID,22.2966,VALID,8,VALID,0.897656,
2010-08-28, 01:39:05,VALID,1001.22,VALID,0,VALID,92.0132,VALID,0,VALID,22.2381,VALID,8,VALID,0.825,
2010-08-28, 01:40:05,VALID,1001.18,VALID,0,VALID,92.1048,VALID,0,VALID,22.199,VALID,8,VALID,0.731641,
2010-08-28, 01:41:05,VALID,1001.19,VALID,0,VALID,92.1887,VALID,0,VALID,22.1389,VALID,8,VALID,0.619922,
2010-08-28, 01:42:05,VALID,1001.19,VALID,0,VALID,92.3413,VALID,0,VALID,22.121,VALID,8,VALID,0.655078,
2010-08-28, 01:43:05,VALID,1001.19,VALID,0,VALID,92.4634,VALID,0,VALID,22.1015,VALID,8,VALID,0.739062,
2010-08-28, 01:44:05,VALID,1001.17,VALID,0,VALID,92.5473,VALID,0,VALID,22.0625,VALID,8,VALID,0.726172,
2010-08-28, 01:45:05,VALID,1001.2,VALID,0,VALID,92.5931,VALID,0,VALID,22.0235,VALID,7,VALID,0.680859,
2010-08-28, 01:46:05,VALID,1001.16,VALID,0,VALID,92.7151,VALID,0,VALID,22.004,VALID,7,VALID,0.428516,
2010-08-28, 01:47:05,VALID,1001.19,VALID,0,VALID,92.8296,VALID,0,VALID,22.004,VALID,7,VALID,0,
2010-08-28, 01:48:05,VALID,1001.18,VALID,0,VALID,92.8983,VALID,0,VALID,21.9845,VALID,7,VALID,0,
2010-08-28, 01:49:05,VALID,1001.19,VALID,0,VALID,92.9898,VALID,0,VALID,22.004,VALID,7,VALID,0,
2010-08-28, 01:50:05,VALID,1001.15,VALID,0,VALID,93.0814,VALID,0,VALID,22.004,VALID,7,VALID,0,
2010-08-28, 01:51:05,VALID,1001.13,VALID,0,VALID,93.1348,VALID,0,VALID,22.004,VALID,7,VALID,0,
2010-08-28, 01:52:05,VALID,1001.09,VALID,0,VALID,93.1805,VALID,0,VALID,21.9845,VALID,7,VALID,0,
2010-08-28, 01:53:05,VALID,1001.09,VALID,0,VALID,93.2034,VALID,0,VALID,21.9862,VALID,7,VALID,0,
2010-08-28, 01:54:05,VALID,1001.03,VALID,0,VALID,93.234,VALID,0,VALID,21.965,VALID,7,VALID,0,
2010-08-28, 01:55:05,VALID,1000.97,VALID,0,VALID,93.2721,VALID,0,VALID,21.9455,VALID,7,VALID,0,
2010-08-28, 01:56:05,VALID,1000.96,VALID,0,VALID,93.2874,VALID,0,VALID,21.9065,VALID,7,VALID,0,
2010-08-28, 01:57:05,VALID,1000.95,VALID,0,VALID,93.3026,VALID,0,VALID,21.887,VALID,7,VALID,0,
2010-08-28, 01:58:05,VALID,1000.94,VALID,0,VALID,93.295,VALID,0,VALID,21.8675,VALID,7,VALID,0,
2010-08-28, 01:59:05,VALID,1000.94,VALID,0,VALID,93.3331,VALID,0,VALID,21.848,VALID,7,VALID,0,
2010-08-28, 02:00:05,VALID,1000.92,VALID,0,VALID,93.3637,VALID,0,VALID,21.8675,VALID,7,VALID,0,
2010-08-28, 02:01:05,VALID,1000.91,VALID,0,VALID,93.356,VALID,0,VALID,21.809,VALID,7,VALID,0,
2010-08-28, 02:02:05,VALID,1000.93,VALID,0,VALID,93.3713,VALID,0,VALID,21.7895,VALID,7,VALID,0,
2010-08-28, 02:03:05,VALID,1000.91,VALID,0,VALID,93.3942,VALID,0,VALID,21.8301,VALID,7,VALID,0,
2010-08-28, 02:04:05,VALID,1000.9,VALID,0,VALID,93.4552,VALID,0,VALID,21.848,VALID,7,VALID,0,
2010-08-28, 02:05:05,VALID,1000.94,VALID,0,VALID,93.4781,VALID,0,VALID,21.887,VALID,320,VALID,0,
2010-08-28, 02:06:05,VALID,1000.97,VALID,0,VALID,93.5544,VALID,0,VALID,21.887,VALID,320,VALID,0,
2010-08-28, 02:07:05,VALID,1000.99,VALID,0,VALID,93.5697,VALID,0,VALID,21.887,VALID,320,VALID,0,
2010-08-28, 02:08:05,VALID,1000.98,VALID,0,VALID,93.5849,VALID,0,VALID,21.9065,VALID,320,VALID,0,
2010-08-28, 02:09:05,VALID,1000.97,VALID,0,VALID,93.6231,VALID,0,VALID,21.9065,VALID,320,VALID,0,
2010-08-28, 02:10:05,VALID,1000.96,VALID,0,VALID,93.6154,VALID,0,VALID,21.8887,VALID,320,VALID,0,
2010-08-28, 02:11:05,VALID,1000.94,VALID,0,VALID,93.6231,VALID,0,VALID,21.848,VALID,320,VALID,0,
2010-08-28, 02:12:05,VALID,1000.91,VALID,0,VALID,93.646,VALID,0,VALID,21.8285,VALID,320,VALID,0,
2010-08-28, 02:13:05,VALID,1000.89,VALID,0,VALID,93.6612,VALID,0,VALID,21.809,VALID,24,VALID,0,
2010-08-28, 02:14:05,VALID,1000.84,VALID,0,VALID,93.6765,VALID,0,VALID,21.7895,VALID,40,VALID,0.761328,
2010-08-28, 02:15:05,VALID,1000.77,VALID,0,VALID,93.646,VALID,0,VALID,21.7115,VALID,32,VALID,1.37344,
2010-08-28, 02:16:04,VALID,1000.78,VALID,0,VALID,93.6307,VALID,0,VALID,21.653,VALID,27,VALID,1.36328,
2010-08-28, 02:17:04,VALID,1000.82,VALID,0,VALID,93.5849,VALID,0,VALID,21.6351,VALID,26,VALID,0.410156,
2010-08-28, 02:18:04,VALID,1000.82,VALID,0,VALID,93.5468,VALID,0,VALID,21.5766,VALID,26,VALID,0.404297,
2010-08-28, 02:19:04,VALID,1000.79,VALID,0,VALID,93.5391,VALID,0,VALID,21.5766,VALID,27,VALID,0.794141,
2010-08-28, 02:20:04,VALID,1000.8,VALID,0,VALID,93.501,VALID,0,VALID,21.536,VALID,37,VALID,0.730859,
2010-08-28, 02:21:04,VALID,1000.81,VALID,0,VALID,93.4705,VALID,0,VALID,21.5571,VALID,71,VALID,0.810938,
2010-08-28, 02:22:04,VALID,1000.8,VALID,0,VALID,93.4781,VALID,0,VALID,21.5555,VALID,71,VALID,0.746875,
2010-08-28, 02:23:04,VALID,1000.82,VALID,0,VALID,93.501,VALID,0,VALID,21.5555,VALID,71,VALID,0.262109,
2010-08-28, 02:24:04,VALID,1000.81,VALID,0,VALID,93.4705,VALID,0,VALID,21.536,VALID,71,VALID,0.217969,
2010-08-28, 02:25:04,VALID,1000.81,VALID,0,VALID,93.4628,VALID,0,VALID,21.536,VALID,71,VALID,0.442969,
2010-08-28, 02:26:04,VALID,1000.85,VALID,0,VALID,93.4705,VALID,0,VALID,21.536,VALID,71,VALID,0.684766,
2010-08-28, 02:27:04,VALID,1000.86,VALID,0,VALID,93.4628,VALID,0,VALID,21.5165,VALID,71,VALID,0.307422,
2010-08-28, 02:28:04,VALID,1000.87,VALID,0,VALID,93.4476,VALID,0,VALID,21.497,VALID,71,VALID,0.075,
2010-08-28, 02:29:04,VALID,1000.88,VALID,0,VALID,93.4705,VALID,0,VALID,21.4775,VALID,71,VALID,0.00585938,
2010-08-28, 02:30:04,VALID,1000.85,VALID,0,VALID,93.4552,VALID,0,VALID,21.4775,VALID,70,VALID,0.325391,
2010-08-28, 02:31:04,VALID,1000.88,VALID,0,VALID,93.4628,VALID,0,VALID,21.497,VALID,70,VALID,0.262109,
2010-08-28, 02:32:04,VALID,1000.85,VALID,0,VALID,93.501,VALID,0,VALID,21.5181,VALID,70,VALID,0,
2010-08-28, 02:33:04,VALID,1000.87,VALID,0,VALID,93.5391,VALID,0,VALID,21.5376,VALID,70,VALID,0,
2010-08-28, 02:34:04,VALID,1000.83,VALID,0,VALID,93.5697,VALID,0,VALID,21.5165,VALID,70,VALID,0,
2010-08-28, 02:35:04,VALID,1000.84,VALID,0,VALID,93.5544,VALID,0,VALID,21.5165,VALID,70,VALID,0,
2010-08-28, 02:36:04,VALID,1000.84,VALID,0,VALID,93.5849,VALID,0,VALID,21.5165,VALID,70,VALID,0.403516,
2010-08-28, 02:37:04,VALID,1000.82,VALID,0,VALID,93.5849,VALID,0,VALID,21.5165,VALID,70,VALID,0.521484,
2010-08-28, 02:38:04,VALID,1000.81,VALID,0,VALID,93.6383,VALID,0,VALID,21.5165,VALID,70,VALID,0.717969,
2010-08-28, 02:39:04,VALID,1000.82,VALID,0,VALID,93.6536,VALID,0,VALID,21.5555,VALID,70,VALID,0.580859,
2010-08-28, 02:40:04,VALID,1000.81,VALID,0,VALID,93.6688,VALID,0,VALID,21.575,VALID,70,VALID,0.362109,
2010-08-28, 02:41:04,VALID,1000.83,VALID,0,VALID,93.6994,VALID,0,VALID,21.575,VALID,70,VALID,0.580469,
2010-08-28, 02:42:04,VALID,1000.84,VALID,0,VALID,93.7146,VALID,0,VALID,21.5945,VALID,70,VALID,0.819922,
2010-08-28, 02:43:04,VALID,1000.85,VALID,0,VALID,93.7299,VALID,0,VALID,21.614,VALID,70,VALID,0.835547,
2010-08-28, 02:44:04,VALID,1000.83,VALID,0,VALID,93.7833,VALID,0,VALID,21.653,VALID,70,VALID,0.959375,
2010-08-28, 02:45:04,VALID,1000.85,VALID,0,VALID,93.8138,VALID,0,VALID,21.692,VALID,70,VALID,1.12578,
2010-08-28, 02:46:04,VALID,1000.83,VALID,0,VALID,93.8062,VALID,0,VALID,21.7115,VALID,77,VALID,1.40039,
2010-08-28, 02:47:04,VALID,1000.82,VALID,0,VALID,93.7985,VALID,0,VALID,21.7115,VALID,77,VALID,1.54922,
2010-08-28, 02:48:04,VALID,1000.8,VALID,0,VALID,93.8062,VALID,0,VALID,21.7115,VALID,70,VALID,1.41875,
2010-08-28, 02:49:04,VALID,1000.78,VALID,0,VALID,93.7528,VALID,0,VALID,21.6725,VALID,66,VALID,0.932813,
2010-08-28, 02:50:04,VALID,1000.77,VALID,0,VALID,93.7451,VALID,0,VALID,21.653,VALID,67,VALID,0.823438,
2010-08-28, 02:51:04,VALID,1000.76,VALID,0,VALID,93.7299,VALID,0,VALID,21.614,VALID,67,VALID,0.562891,
2010-08-28, 02:52:04,VALID,1000.76,VALID,0,VALID,93.6917,VALID,0,VALID,21.614,VALID,67,VALID,0.219141,
2010-08-28, 02:53:04,VALID,1000.79,VALID,0,VALID,93.6841,VALID,0,VALID,21.5945,VALID,67,VALID,0.0851562,
2010-08-28, 02:54:04,VALID,1000.75,VALID,0,VALID,93.6612,VALID,0,VALID,21.575,VALID,67,VALID,0.583594,
2010-08-28, 02:55:04,VALID,1000.74,VALID,0,VALID,93.6612,VALID,0,VALID,21.5555,VALID,67,VALID,0.923437,
2010-08-28, 02:56:04,VALID,1000.75,VALID,0,VALID,93.6841,VALID,0,VALID,21.575,VALID,67,VALID,1.05391,
2010-08-28, 02:57:04,VALID,1000.7,VALID,0,VALID,93.6841,VALID,0,VALID,21.5945,VALID,57,VALID,1.37617,
2010-08-28, 02:58:04,VALID,1000.71,VALID,0,VALID,93.6078,VALID,0,VALID,21.575,VALID,51,VALID,1.27656,
2010-08-28, 02:59:04,VALID,1000.7,VALID,0,VALID,93.5926,VALID,0,VALID,21.5945,VALID,52,VALID,1.03828,
2010-08-28, 03:00:04,VALID,1000.7,VALID,0,VALID,93.5773,VALID,0,VALID,21.575,VALID,54,VALID,1.21523,
2010-08-28, 03:01:04,VALID,1000.67,VALID,0,VALID,93.5468,VALID,0,VALID,21.5945,VALID,55,VALID,1.32109,
2010-08-28, 03:02:04,VALID,1000.68,VALID,0,VALID,93.562,VALID,0,VALID,21.614,VALID,53,VALID,1.43867,
2010-08-28, 03:03:04,VALID,1000.71,VALID,0,VALID,93.5391,VALID,0,VALID,21.614,VALID,52,VALID,1.25742,
2010-08-28, 03:04:04,VALID,1000.7,VALID,0,VALID,93.5391,VALID,0,VALID,21.6335,VALID,53,VALID,1.22656,
2010-08-28, 03:05:04,VALID,1000.74,VALID,0,VALID,93.5086,VALID,0,VALID,21.6725,VALID,48,VALID,1.30703,
2010-08-28, 03:06:04,VALID,1000.77,VALID,0,VALID,93.4781,VALID,0,VALID,21.6725,VALID,47,VALID,0.671875,
2010-08-28, 03:07:04,VALID,1000.78,VALID,0,VALID,93.4323,VALID,0,VALID,21.653,VALID,43,VALID,0.772266,
2010-08-28, 03:08:04,VALID,1000.78,VALID,0,VALID,93.3942,VALID,0,VALID,21.653,VALID,24,VALID,0.616797,
2010-08-28, 03:09:04,VALID,1000.8,VALID,0,VALID,93.3331,VALID,0,VALID,21.6335,VALID,24,VALID,0.349609,
2010-08-28, 03:10:04,VALID,1000.81,VALID,0,VALID,93.2874,VALID,0,VALID,21.614,VALID,24,VALID,0,
2010-08-28, 03:11:04,VALID,1000.8,VALID,0,VALID,93.2568,VALID,0,VALID,21.614,VALID,24,VALID,0,
2010-08-28, 03:12:04,VALID,1000.78,VALID,0,VALID,93.2111,VALID,0,VALID,21.5945,VALID,24,VALID,0,
2010-08-28, 03:13:04,VALID,1000.78,VALID,0,VALID,93.2111,VALID,0,VALID,21.5961,VALID,24,VALID,0,
2010-08-28, 03:14:04,VALID,1000.77,VALID,0,VALID,93.2034,VALID,0,VALID,21.536,VALID,24,VALID,0,
2010-08-28, 03:15:04,VALID,1000.82,VALID,0,VALID,93.2034,VALID,0,VALID,21.536,VALID,24,VALID,0,
2010-08-28, 03:16:04,VALID,1000.84,VALID,0,VALID,93.1958,VALID,0,VALID,21.5181,VALID,24,VALID,0,
2010-08-28, 03:17:04,VALID,1000.86,VALID,0,VALID,93.2492,VALID,0,VALID,21.536,VALID,24,VALID,0,
2010-08-28, 03:18:04,VALID,1000.84,VALID,0,VALID,93.3255,VALID,0,VALID,21.536,VALID,39,VALID,0.859375,
2010-08-28, 03:19:04,VALID,1000.88,VALID,0,VALID,93.3026,VALID,0,VALID,21.5165,VALID,46,VALID,0.66875,
2010-08-28, 03:20:04,VALID,1000.88,VALID,0,VALID,93.3408,VALID,0,VALID,21.5148,VALID,51,VALID,0.752344,
2010-08-28, 03:21:04,VALID,1000.89,VALID,0,VALID,93.3713,VALID,0,VALID,21.5165,VALID,59,VALID,0.741016,
2010-08-28, 03:22:04,VALID,1000.87,VALID,0,VALID,93.3866,VALID,0,VALID,21.5571,VALID,62,VALID,0.858594,
2010-08-28, 03:23:04,VALID,1000.84,VALID,0,VALID,93.4476,VALID,0,VALID,21.5961,VALID,62,VALID,0.876953,
2010-08-28, 03:24:04,VALID,1000.89,VALID,0,VALID,93.4628,VALID,0,VALID,21.5945,VALID,62,VALID,0.9125,
2010-08-28, 03:25:04,VALID,1000.92,VALID,0,VALID,93.4628,VALID,0,VALID,21.5766,VALID,62,VALID,0.876953,
2010-08-28, 03:26:04,VALID,1000.95,VALID,0,VALID,93.4323,VALID,0,VALID,21.5555,VALID,62,VALID,0.728516,
2010-08-28, 03:27:04,VALID,1000.96,VALID,0,VALID,93.4171,VALID,0,VALID,21.5165,VALID,65,VALID,0.316406,
2010-08-28, 03:28:04,VALID,1000.94,VALID,0,VALID,93.4171,VALID,0,VALID,21.5181,VALID,84,VALID,0.842969,
2010-08-28, 03:29:04,VALID,1000.94,VALID,0,VALID,93.4247,VALID,0,VALID,21.497,VALID,84,VALID,0.726953,
2010-08-28, 03:30:04,VALID,1000.92,VALID,0,VALID,93.4018,VALID,0,VALID,21.5181,VALID,84,VALID,0.4125,
2010-08-28, 03:31:04,VALID,1000.92,VALID,0,VALID,93.4476,VALID,0,VALID,21.4775,VALID,73,VALID,0.483594,
2010-08-28, 03:32:04,VALID,1000.88,VALID,0,VALID,93.4552,VALID,0,VALID,21.497,VALID,72,VALID,0.439844,
2010-08-28, 03:33:04,VALID,1000.87,VALID,0,VALID,93.4628,VALID,0,VALID,21.4775,VALID,71,VALID,0.582422,
2010-08-28, 03:34:04,VALID,1000.88,VALID,0,VALID,93.4857,VALID,0,VALID,21.4775,VALID,56,VALID,0.622656,
2010-08-28, 03:35:04,VALID,1000.88,VALID,0,VALID,93.4781,VALID,0,VALID,21.4775,VALID,55,VALID,0.592578,
2010-08-28, 03:36:04,VALID,1000.9,VALID,0,VALID,93.4934,VALID,0,VALID,21.4385,VALID,55,VALID,0.532031,
2010-08-28, 03:37:04,VALID,1000.91,VALID,0,VALID,93.4552,VALID,0,VALID,21.3995,VALID,55,VALID,0.271875,
2010-08-28, 03:38:04,VALID,1000.89,VALID,0,VALID,93.4552,VALID,0,VALID,21.38,VALID,55,VALID,0.136328,
2010-08-28, 03:39:04,VALID,1000.88,VALID,0,VALID,93.4705,VALID,0,VALID,21.38,VALID,55,VALID,0.3125,
2010-08-28, 03:40:04,VALID,1000.87,VALID,0,VALID,93.501,VALID,0,VALID,21.419,VALID,55,VALID,0.292188,
2010-08-28, 03:41:04,VALID,1000.86,VALID,0,VALID,93.5315,VALID,0,VALID,21.458,VALID,55,VALID,0.421484,
2010-08-28, 03:42:04,VALID,1000.84,VALID,0,VALID,93.5697,VALID,0,VALID,21.4385,VALID,55,VALID,0.282422,
2010-08-28, 03:43:04,VALID,1000.85,VALID,0,VALID,93.5926,VALID,0,VALID,21.4401,VALID,55,VALID,0.278516,
2010-08-28, 03:44:04,VALID,1000.83,VALID,0,VALID,93.5926,VALID,0,VALID,21.458,VALID,55,VALID,0.374219,
2010-08-28, 03:45:04,VALID,1000.84,VALID,0,VALID,93.6002,VALID,0,VALID,21.4385,VALID,55,VALID,0.382813,
2010-08-28, 03:46:04,VALID,1000.84,VALID,0,VALID,93.6154,VALID,0,VALID,21.4385,VALID,55,VALID,0.191406,
2010-08-28, 03:47:04,VALID,1000.84,VALID,0,VALID,93.646,VALID,0,VALID,21.4401,VALID,55,VALID,0.340625,
2010-08-28, 03:48:04,VALID,1000.82,VALID,0,VALID,93.646,VALID,0,VALID,21.4385,VALID,55,VALID,0.478125,
2010-08-28, 03:49:04,VALID,1000.82,VALID,0,VALID,93.6536,VALID,0,VALID,21.4385,VALID,55,VALID,0.295312,
2010-08-28, 03:50:04,VALID,1000.81,VALID,0,VALID,93.6841,VALID,0,VALID,21.4401,VALID,55,VALID,0,
2010-08-28, 03:51:04,VALID,1000.8,VALID,0,VALID,93.6841,VALID,0,VALID,21.3995,VALID,55,VALID,0.00390625,